Tracking 22881 objects as of 20-Apr-2021
HD Live streaming from Space Station
objects crossing your sky now

ONEWEB-0112

Track ONEWEB-0112 now!
10-day predictions
ONEWEB-0112 is classified as:


NORAD ID: 48051
Int'l Code: 2021-025K
Perigee: 453.9 km
Apogee: 462.6 km
Inclination: 87.4 °
Period: 93.6 minutes
Semi major axis: 6829 km
RCS: Unknown
Launch date: March 25, 2021
Source: United States (US)
Launch site: VOSTOCHNY COSMODROME (VOSTO)
aabbcc
Your satellite tracking list
Your tracking list is empty




NASA's NSSDC Master Catalog

Two Line Element Set (TLE):
1 48051U 21025K   21109.83334491 -.01142150  00000-0 -33171-1 0  9998
2 48051  87.4014 341.0021 0006377 158.3192 218.3122 15.38307456  5227
Source of the keplerian elements: AFSPC